TimeEST,TemperatureF,Dew PointF,Humidity,Sea Level PressureIn,VisibilityMPH,Wind Direction,Wind SpeedMPH,Gust SpeedMPH,PrecipitationIn,Events,Conditions,WindDirDegrees,DateUTC
12:54 AM,37.0,26.1,65,30.05,10.0,SE,4.6,-,N/A,,Overcast,130,2012-11-07 05:54:00
1:54 AM,37.0,26.1,65,30.06,10.0,ESE,4.6,-,N/A,,Overcast,120,2012-11-07 06:54:00
2:54 AM,35.1,26.1,70,30.06,10.0,SE,5.8,-,N/A,,Mostly Cloudy,130,2012-11-07 07:54:00
3:54 AM,35.1,26.1,70,30.08,10.0,Calm,Calm,-,N/A,,Overcast,0,2012-11-07 08:54:00
4:54 AM,28.9,23.0,78,30.09,10.0,Calm,Calm,-,N/A,,Clear,0,2012-11-07 09:54:00
5:54 AM,28.9,24.1,82,30.10,10.0,Calm,Calm,-,N/A,,Overcast,0,2012-11-07 10:54:00
6:54 AM,27.0,23.0,85,30.12,10.0,NW,3.5,-,N/A,,Overcast,320,2012-11-07 11:54:00
7:54 AM,30.0,27.0,88,30.14,10.0,Calm,Calm,-,N/A,,Overcast,0,2012-11-07 12:54:00
8:54 AM,32.0,28.0,85,30.17,10.0,Calm,Calm,-,N/A,,Overcast,0,2012-11-07 13:54:00
9:54 AM,36.0,30.0,79,30.16,10.0,Calm,Calm,-,N/A,,Overcast,0,2012-11-07 14:54:00
10:54 AM,39.0,30.0,70,30.17,10.0,Calm,Calm,-,N/A,,Overcast,0,2012-11-07 15:54:00
11:54 AM,43.0,28.0,56,30.16,10.0,SSE,8.1,-,N/A,,Clear,150,2012-11-07 16:54:00
12:54 PM,43.0,28.0,56,30.14,10.0,SE,8.1,-,N/A,,Overcast,140,2012-11-07 17:54:00
1:54 PM,42.1,28.0,58,30.14,10.0,SE,9.2,-,N/A,,Overcast,130,2012-11-07 18:54:00
2:54 PM,42.1,28.0,58,30.15,10.0,SE,5.8,-,N/A,,Overcast,140,2012-11-07 19:54:00
3:54 PM,42.1,28.0,58,30.15,10.0,SSE,4.6,-,N/A,,Overcast,160,2012-11-07 20:54:00
4:54 PM,41.0,28.0,60,30.15,10.0,SE,3.5,-,N/A,,Overcast,140,2012-11-07 21:54:00
5:54 PM,37.9,27.0,65,30.16,10.0,East,3.5,-,N/A,,Clear,90,2012-11-07 22:54:00
6:54 PM,28.9,21.9,75,30.18,10.0,Calm,Calm,-,N/A,,Clear,0,2012-11-07 23:54:00
7:54 PM,28.0,23.0,81,30.19,10.0,Calm,Calm,-,N/A,,Clear,0,2012-11-08 00:54:00
8:54 PM,27.0,23.0,85,30.19,10.0,Calm,Calm,-,N/A,,Clear,0,2012-11-08 01:54:00
9:54 PM,26.1,23.0,88,30.19,10.0,Calm,Calm,-,N/A,,Clear,0,2012-11-08 02:54:00
10:54 PM,24.1,21.9,91,30.19,10.0,Calm,Calm,-,N/A,,Mostly Cloudy,0,2012-11-08 03:54:00
11:54 PM,24.1,21.9,91,30.18,10.0,Calm,Calm,-,N/A,,Partly Cloudy,0,2012-11-08 04:54:00